Regional Weather Roundup
Issued by NWS

Home | Current Version | Previous Version | Graphics & Text | Print | Product List | Glossary On
Versions: 1 2 3 4 5 6 7 8 9 10 11 12 13 14 15 16 17 18 19 20 21 22 23 24 25 26 27 28 29 30 31 32 33 34 35 36 37 38 39 40 41 42 43 44 45 46 47 48 49 50
000
ASUS45 KBOU 150807
RWRCO

WEATHER ROUNDUP FOR COLORADO
NATIONAL WEATHER SERVICE DENVER/BOULDER CO
200 AM MDT MON SEP 15 2014

NOTE: "FAIR" INDICATES FEW OR NO CLOUDS BELOW 12000 FEET WITH NO
SIGNIFICANT WEATHER AND/OR OBSTRUCTIONS TO VISIBILITY.

COZ001>005-013-030-031-150900-
...NORTHWEST COLORADO...

CITY           SKY/WX    TMP DP  RH WIND       PRES   REMARKS
CRAIG          CLEAR     45  39  79 CALM      30.24R
HAYDEN         CLEAR     52  36  54 E8        30.26R
MEEKER         CLEAR     47  39  74 NE3       30.27R
MOUNT WERNER   NOT AVBL
STEAMBOAT SPGS PTCLDY    50  37  60 CALM      30.29R
WALDEN         PTCLDY    37  32  81 SE9       30.35R
$$

COZ006>008-011-150900-
...WEST CENTRAL VALLEYS...

CITY           SKY/WX    TMP DP  RH WIND       PRES   REMARKS
GRAND JUNCTION PTCLDY    61  38  42 SE13      30.12R
MONTROSE       CLEAR     60  41  49 SE7       30.22R
EAGLE          CLEAR     48  39  71 CALM      30.31R
RIFLE          CLEAR     55  38  52 E5        30.20R
DELTA          CLEAR     61  40  45 NE7       30.17S
NUCLA          CLEAR     55  41  58 SE5       30.25R
$$

COZ017>023-064>068-150900-
...SOUTHWEST COLORADO...

CITY           SKY/WX    TMP DP  RH WIND       PRES   REMARKS
DURANGO        PTCLDY    55  40  56 E5        30.28R
CORTEZ         CLEAR     57  43  59 NE3       30.21R
PAGOSA SPRINGS NOT AVBL
TELLURIDE      CLEAR     50  37  62 SE8       30.43S
WOLF CREEK PAS CLEAR     41  37  87 SW13      30.62S
$$

COZ009-010-012-014-032>034-037-058>063-150900-
...CENTRAL COLORADO...

CITY           SKY/WX    TMP DP  RH WIND       PRES   REMARKS
ASPEN          CLEAR     48  34  58 SW8       30.35R
BUENA VISTA    CLEAR     49  34  55 N5        30.37R
COPPER MTN     CLEAR     46  27  46 W12G17    30.62S
BERTHOUD PASS  FAIR      37  37 100 W16G22    30.64S
COTTONWOOD PAS CLEAR     55  30  38 W8        30.48R
GUNNISON       CLEAR     45  34  65 CALM      30.39R
KREMMLING      MOCLDY    43  34  70 SE6       30.35R
LEADVILLE      CLEAR     39  30  70 CALM      30.48R
MONARCH PASS   CLEAR     45  30  57 W10       30.72R
SALIDA         CLEAR     55  34  44 CALM      30.41R
SUNLIGHT       CLEAR     54  32  43 CALM      30.55S
WILKERSON PASS NOT AVBL
$$

COZ069>075-150900-
...SAN LUIS VALLEY/SANGRE DE CRISTO MOUNTAINS...

CITY           SKY/WX    TMP DP  RH WIND       PRES   REMARKS
ALAMOSA        PTCLDY    53  43  68 CALM      30.33R
LA VETA PASS   NOT AVBL
SAGUACHE       NOT AVBL
$$

COZ035-036-038>040-150900-
...NORTHERN COLORADO FRONT RANGE...

CITY           SKY/WX    TMP DP  RH WIND       PRES   REMARKS
DENVER INTL AP MOCLDY    52  47  83 N14       30.22R
DMNS CITY PARK   N/A     56  48  75 N1G10     30.24R
AURORA         PTCLDY    51  49  92 NW7       30.24R
FRONT RANGE AP CLEAR     52  50  93 NW8       30.23R
ERIE MUNI ARPT PTCLDY    54  49  85 CALM      30.22R
BOULDER MUN AP PTCLDY    57  50  77 CALM      30.22R
CENTENNIAL     PTCLDY    54  49  83 N12       30.24R
BROOMFIELD     PTCLDY    55  48  76 N9        30.24R
FORT COLLINS   PTCLDY    54  45  71 N8        30.23R
LONGMONT       PTCLDY    58  49  72 CALM      30.23R
$$

COZ041-046-047-076>085-087-088-150900-
...PIKES PEAK/PALMER DIVIDE AND SOUTHERN FOOTHILLS...

CITY           SKY/WX    TMP DP  RH WIND       PRES   REMARKS
COLO. SPRINGS  PTCLDY    59  35  40 N6        30.21S
A. F. ACADEMY  CLEAR     50  37  61 N9        30.24R
ELLICOTT       NOT AVBL
FALCON         CLEAR     57  34  41 N8        30.26R
FORT CARSON    CLEAR     58  37  46 N13       30.18R
LIMON          MOCLDY    50  45  83 N9        30.14S
MONUMENT HILL  CLEAR     46  36  66 W13       30.27R
TRINIDAD       MOCLDY    64  51  62 W17       30.15R
$$

COZ042>045-048>051-090-091-150900-
...NORTHEAST COLORADO...

CITY           SKY/WX    TMP DP  RH WIND       PRES   REMARKS
GREELEY ARPT   CLEAR     52  43  71 N8        30.21R
AKRON          CLOUDY    52  50  93 N16       30.15R
BURLINGTON     MOCLDY    63  55  75 S8        30.05F
WRAY           CLOUDY   N/A N/A N/A MISG      30.10R
STERLING       CLOUDY    55  52  88 NE13      30.16R
HOLYOKE        CLOUDY    59  55  88 N8        30.14R
FORT MORGAN    CLEAR     51  46  83 N17       30.17R
$$

COZ086-089-092>099-150900-
...SOUTHEAST COLORADO...

CITY           SKY/WX    TMP DP  RH WIND       PRES   REMARKS
PUEBLO         CLEAR     61  36  39 NW10      30.09R
LA JUNTA       CLEAR     59  53  80 N6        30.05R
LAMAR          CLEAR     57  52  83 SW3       30.02R
SPRINGFIELD      N/A     57  55  93 SW3       30.07R
$$



USA.gov is the U.S. government's official web portal to all federal, state and local government web resources and services.